Regional Weather Roundup
Issued by NWS

Home | Current Version | Previous Version | Text Only | Print | Product List | Glossary On
Versions: 1 2 3 4 5 6 7 8 9 10 11 12 13 14 15 16 17 18 19 20 21 22 23 24 25 26 27 28 29 30 31 32 33 34 35 36 37 38 39 40 41 42 43 44 45 46 47 48 49 50
000
ASUS44 KJAN 010103
RWRMS

MISSISSIPPI HOURLY WEATHER ROUNDUP
NATIONAL WEATHER SERVICE JACKSON MS
800 PM CDT TUE SEP 30 2014

NOTE: "FAIR: INDICATES FEW OR NO CLOUDS BELOW 12,000 FEET WITH NO
SIGNIFICANT WEATHER AND/OR OBSTRUCTIONS TO VISIBILITY.

MSZ001>002-007>008-010>013-018>021-025>028-034>036-010200-
NORTHWEST MISSISSIPPI

CITY           SKY/WX    TMP DP  RH WIND       PRES   REMARKS
CLARKSDALE     FAIR      75  63  64 CALM      29.86S
CLEVELAND      FAIR      74  61  63 CALM      29.84S
GREENWOOD      CLEAR     76  66  71 E3        29.85S
GREENVILLE     CLEAR     75  61  61 N5        29.84R
GRENADA        FAIR      70  64  83 CALM      29.87R
OLIVE BRANCH   MOCLDY    73  64  73 CALM      29.88S
OXFORD         FAIR      68  66  94 CALM      29.90R
TUNICA         MOCLDY    72  61  68 CALM      29.87R
$$

MSZ003>006-009-014>017-022>024-029>033-037>039-010200-
NORTHEAST MISSISSIPPI

CITY           SKY/WX    TMP DP  RH WIND       PRES   REMARKS
COLUMBUS AFB   PTCLDY    70  65  83 CALM      29.88R
CORINTH          N/A     70  63  78 CALM      29.88S
GOLDN TRIANGLE CLEAR     77  61  57 CALM      29.87S
STARKVILLE     FAIR      68  63  83 CALM      29.88R
TUPELO         MOCLDY    73  60  63 CALM      29.88R
$$

MSZ040-058-010200-
CENTRAL MISSISSIPPI

CITY           SKY/WX    TMP DP  RH WIND       PRES   REMARKS
JACKSON INTL   PTCLDY    78  66  66 SE5       29.87R
JACKSON HAWKNS MOCLDY    80  65  59 E5        29.87R
MERIDIAN KEY   CLEAR     71  63  75 CALM      29.87R
MERIDIAN NAS   CLEAR     73  60  63 CALM      29.88R
RAYMOND        FAIR      73  68  83 CALM      29.86R
VICKSBURG      CLEAR     74  66  76 CALM      29.84R
$$

MSZ059>079-010200-
SOUTH MISSISSIPPI

CITY           SKY/WX    TMP DP  RH WIND       PRES   REMARKS
BROOKHAVEN     FAIR      73  70  88 CALM      29.88S
COLUMBIA       FAIR      73  72  94 CALM      29.86R
HATTIESBURG    CLEAR     74  70  87 CALM      29.88R
MCCOMB         PTCLDY    79  68  69 E6        29.86R
NATCHEZ        CLEAR     75  70  83 CALM      29.85S
PINE BELT      CLEAR     72  66  83 CALM      29.90R
$$

MSZ080>082-010200-
COASTAL MISSISSIPPI

CITY           SKY/WX    TMP DP  RH WIND       PRES   REMARKS
BAY ST LOUIS   CLEAR     77  70  78 CALM      29.87R
BILOXI         CLEAR     78  72  80 SE7       29.87R
PASCAGOULA     CLEAR     71  69  93 CALM      29.88R
GULFPORT       PTCLDY    78  72  81 SE8       29.86S
$$


USA.gov is the U.S. government's official web portal to all federal, state and local government web resources and services.